Wind_Speed
62 63 64 65 66 68 69 71 72 73 74 75 76 76 77 77 77 78 79 80 81 81 82 84 86 88 91 93 95 96 97 99 101 104 107 109 110 112 114 116 118 119 120 121 122 123 123 124 125 125 126 126 126 127 128 129 130 132 134 135 137 139 140 140 140 138 138 138 137 135 132 129 125 123 120 117 115 114 113 112 111 109 108 106 103
64 65 66 68 69 70 71 72 73 74 75 75 76 76 77 77 78 79 81 82 82 83 84 86 87 89 91 93 95 97 99 102 105 108 110 112 114 116 117 119 119 120 122 123 123 124 124 124 124 124 124 124 125 126 128 129 131 132 134 136 138 140 141 141 140 138 135 134 132 129 127 123 120 117 115 111 110 108 107 107 107 106 105 103 100
67 68 68 69 70 71 71 72 73 74 75 75 76 77 78 79 80 81 82 83 84 85 86 87 88 89 91 93 96 99 102 105 108 110 113 115 116 118 119 119 120 121 122 122 123 123 123 123 123 123 123 124 125 126 128 130 131 133 135 137 138 139 140 140 139 136 132 128 126 123 121 118 116 113 110 107 104 103 102 102 102 102 102 100 98
69 69 70 71 72 73 74 75 75 76 76 77 78 79 80 81 82 83 84 85 86 86 87 88 89 91 93 95 98 101 104 107 109 111 114 115 117 118 119 119 120 120 121 121 121 122 122 122 122 122 123 124 125 126 128 130 132 134 135 136 138 138 139 138 136 133 128 123 121 119 117 114 112 109 106 102 98 97 97 97 98 98 98 97 95
71 72 73 74 75 76 77 77 77 78 78 79 80 81 82 83 84 85 86 87 88 89 90 90 91 93 95 98 100 103 106 108 110 111 113 114 115 116 117 118 118 119 119 119 120 120 120 120 121 122 123 124 125 127 129 131 132 134 135 136 137 137 136 134 131 127 123 120 117 115 113 111 108 105 102 98 93 91 91 92 94 94 93 93 92
74 75 76 77 77 78 79 79 79 79 80 80 81 82 83 84 85 87 88 89 90 91 91 92 93 95 98 100 103 105 107 109 110 111 112 113 114 115 116 116 117 117 117 117 118 119 119 120 121 122 124 125 127 128 130 131 132 133 134 134 134 133 132 129 125 122 119 117 115 113 110 107 104 101 98 95 90 87 85 86 89 92 91 89 88
77 78 78 78 78 79 79 80 80 81 81 82 83 84 85 86 88 89 90 91 92 93 93 94 96 99 101 103 106 107 108 109 110 111 112 113 114 114 115 115 115 115 115 116 117 118 119 120 121 123 125 126 128 130 131 132 132 132 132 132 131 129 126 123 121 118 116 114 112 110 107 104 101 98 94 91 88 86 83 81 83 86 87 87 86
79 79 78 78 79 80 80 81 81 82 82 83 85 86 88 89 91 92 93 94 95 95 96 97 100 103 105 107 108 109 109 110 110 111 112 113 113 113 113 113 113 114 114 115 117 118 120 121 123 125 127 128 129 130 131 131 131 131 130 128 126 124 122 119 117 115 113 111 109 107 103 100 97 94 91 89 86 84 83 81 79 80 81 83 84
79 79 79 80 80 81 81 82 83 83 84 86 87 89 90 92 93 94 95 96 97 97 98 100 102 105 107 109 109 109 110 110 110 111 112 113 113 113 112 113 113 114 115 116 118 120 122 124 125 127 128 129 130 130 130 130 129 128 126 124 122 120 119 117 115 113 111 108 106 103 99 96 94 91 89 87 84 82 81 80 78 78 77 78 79
80 80 80 81 82 82 83 84 85 86 87 88 89 91 92 93 94 95 96 97 98 99 100 102 105 107 108 109 109 109 109 110 110 112 112 112 112 112 113 114 115 116 117 119 121 123 125 127 128 129 130 130 130 130 129 128 127 125 123 121 120 118 116 115 113 110 108 105 103 99 96 93 91 88 86 84 82 80 79 78 77 76 75 74 74
81 81 82 83 84 84 85 87 88 89 89 90 91 92 93 94 95 97 98 99 100 101 103 105 106 108 108 109 109 109 109 110 111 111 111 111 112 112 114 116 117 119 120 123 125 127 129 130 130 131 131 131 130 129 127 126 124 122 120 119 118 116 115 113 110 107 105 102 100 96 93 90 88 86 83 80 78 77 76 75 74 73 72 71 71
83 84 84 85 86 87 88 89 90 90 91 92 92 93 94 95 97 99 100 101 103 104 105 106 107 108 108 108 108 108 109 110 110 111 111 112 113 115 117 119 121 123 125 127 129 131 132 132 132 132 131 130 129 127 125 124 122 120 119 118 117 115 113 111 108 105 102 99 96 93 90 88 85 83 80 77 75 73 72 72 72 71 70 68 67
85 86 87 88 89 90 90 90 91 91 92 93 93 94 96 98 100 101 102 104 105 106 107 107 108 108 108 108 108 109 109 110 111 111 113 114 116 118 121 123 126 128 130 132 133 134 134 134 133 132 131 129 127 125 124 122 120 120 119 117 116 114 111 109 106 103 100 97 93 91 88 85 82 80 77 74 71 69 68 68 69 69 68 66 65
88 88 89 90 91 91 91 91 92 93 93 94 96 97 99 101 102 104 105 106 106 107 107 108 108 108 108 108 109 110 111 111 112 114 116 118 120 122 126 129 131 133 134 135 136 136 136 135 134 133 130 128 126 124 122 121 120 120 118 117 115 112 110 107 104 101 98 95 91 88 85 82 79 78 75 72 69 67 65 64 65 67 67 66 64
88 89 91 91 92 92 92 93 93 94 95 97 98 100 102 103 105 106 107 107 107 107 108 108 109 109 109 110 111 112 114 115 116 118 121 123 125 128 131 134 135 136 137 138 138 138 137 136 134 132 130 127 125 122 121 121 120 119 118 116 114 111 108 105 102 100 97 93 89 86 83 79 77 75 73 70 67 65 63 62 62 63 64 66 65
89 91 92 93 93 93 94 95 96 97 98 100 101 103 104 106 107 108 108 108 108 108 109 110 110 110 111 112 114 116 118 119 121 123 126 129 131 133 136 137 138 139 140 140 140 139 137 136 134 132 129 126 123 122 121 121 120 119 117 115 112 109 106 103 100 98 95 92 88 85 81 77 74 73 71 68 65 63 61 61 60 60 61 63 65
91 93 94 95 95 96 97 98 99 100 101 102 103 105 106 107 108 109 110 110 110 110 111 111 112 113 115 117 119 121 122 124 126 128 131 134 137 138 139 140 140 141 142 142 141 139 138 135 133 130 127 125 123 122 122 121 120 118 116 114 111 107 104 101 99 97 94 91 87 83 79 75 73 71 69 67 63 60 59 59 59 59 59 59 61
93 94 95 96 96 98 99 100 101 102 103 104 105 107 108 109 110 111 111 111 112 112 113 114 116 117 119 121 123 125 127 129 131 134 137 140 141 142 142 142 142 143 143 142 140 139 137 134 131 128 126 124 123 123 122 120 119 117 115 112 109 106 103 100 98 96 93 90 87 83 79 75 72 70 68 66 63 60 57 57 58 58 58 57 57
95 95 96 97 98 100 101 102 103 104 105 106 107 108 109 110 112 112 113 113 114 115 116 118 120 122 124 125 127 129 132 135 137 140 142 143 144 144 143 144 144 144 142 140 139 137 135 132 129 126 125 124 123 122 121 119 118 116 114 111 107 104 101 99 97 94 91 88 86 83 79 75 72 70 68 66 63 60 57 56 56 57 57 56 54
97 97 98 99 100 101 102 104 105 106 107 108 109 110 111 112 113 114 115 116 117 118 120 123 125 126 128 130 132 135 138 141 143 144 146 146 145 145 145 145 145 143 140 138 136 134 132 130 128 126 124 123 123 122 120 118 116 115 112 109 105 102 100 98 95 92 89 87 84 82 79 75 72 70 68 66 64 62 59 57 56 56 57 56 54
99 100 101 101 102 103 104 105 106 108 108 110 111 112 114 115 116 117 118 119 121 123 124 126 128 130 133 135 137 140 142 145 147 148 148 147 147 147 146 145 143 140 137 134 132 131 130 128 127 126 124 123 122 121 119 117 115 113 111 107 103 100 98 96 93 90 87 85 83 81 78 75 72 70 67 66 65 63 60 58 56 56 56 55 54
102 103 103 104 105 105 106 107 108 110 111 112 114 115 116 118 119 120 122 123 125 127 128 131 133 135 137 139 141 144 146 148 149 149 149 148 148 147 146 144 141 137 133 131 130 129 129 128 126 125 123 122 121 120 118 116 114 112 109 105 101 97 95 93 91 88 85 83 81 80 77 74 72 69 67 65 64 63 62 59 57 56 56 55 53
105 105 106 107 107 108 109 110 111 112 114 115 116 118 119 121 122 124 126 127 129 131 133 135 137 139 141 143 145 147 148 149 150 149 149 149 148 147 144 141 137 133 130 128 128 128 128 127 126 124 122 121 120 119 117 115 113 111 107 103 99 95 92 90 88 86 84 82 79 78 76 73 71 69 67 65 64 63 62 60 58 57 56 55 53
107 108 108 109 109 110 111 112 114 115 117 118 119 121 122 124 126 128 129 131 133 135 137 139 140 142 144 146 147 149 149 149 149 149 149 149 147 145 141 137 134 131 128 127 127 127 127 126 125 123 121 120 120 118 117 115 112 110 106 101 96 92 90 88 86 84 82 80 78 76 75 72 70 69 66 64 63 62 61 60 59 57 56 56 55
110 110 111 111 112 113 114 115 117 118 120 121 122 124 126 127 129 131 133 135 137 138 140 142 144 145 146 148 149 149 149 148 148 148 148 147 145 141 138 134 132 129 127 126 126 126 126 125 123 122 120 119 118 117 116 113 111 108 105 100 94 90 89 87 85 83 81 79 77 76 74 72 70 68 66 64 62 61 61 60 60 58 57 57 57
112 113 113 114 115 116 117 119 120 121 123 124 126 127 129 130 132 134 136 138 140 142 143 145 146 147 148 148 149 148 147 147 146 146 145 143 140 137 135 133 131 129 127 126 125 125 124 123 122 120 119 118 117 115 114 112 110 107 103 98 93 89 88 87 84 82 80 78 77 76 74 73 71 68 66 64 63 61 60 60 60 59 59 58 59
115 116 117 118 119 120 121 122 123 125 126 128 129 131 132 134 136 138 140 142 144 145 146 147 148 148 148 148 147 147 146 145 144 143 141 138 136 134 133 132 131 129 128 126 125 122 121 120 119 118 117 116 114 113 111 109 107 105 101 96 91 89 87 86 84 82 80 78 77 76 74 73 71 69 67 65 63 61 60 59 59 60 60 60 60
119 120 121 121 122 124 124 126 127 128 130 131 133 135 137 139 140 142 144 145 146 147 148 148 148 148 147 147 146 145 144 142 141 138 136 134 133 133 132 132 131 130 128 126 124 121 118 117 117 116 115 113 111 109 108 106 104 101 98 93 90 87 86 84 83 81 79 77 76 74 73 72 71 69 67 66 64 62 60 60 59 59 60 60 60
122 123 124 125 126 127 128 129 131 132 134 135 137 139 141 143 144 145 147 147 148 148 147 147 147 146 146 145 144 143 141 138 136 134 133 132 132 131 131 131 131 130 128 126 123 119 117 116 115 113 111 109 107 105 104 101 99 97 94 90 87 85 84 82 81 79 77 76 74 73 72 71 70 69 67 66 65 63 61 60 60 59 59 59 59
126 127 128 129 130 131 132 134 135 137 139 141 142 144 145 146 147 147 147 147 147 146 145 145 145 145 144 143 141 139 137 135 133 132 131 131 131 131 131 130 129 128 127 124 121 118 116 115 112 110 108 106 104 102 100 98 95 93 90 88 85 83 82 80 78 76 75 73 72 70 70 69 69 68 67 66 65 64 62 60 59 59 58 58 59
130 131 132 133 134 136 137 139 141 142 144 145 146 147 147 147 147 146 146 145 144 144 144 144 143 142 141 139 136 134 133 132 131 131 131 130 130 130 129 128 127 126 124 122 119 117 115 112 109 107 105 102 100 98 96 95 92 90 88 85 82 81 79 78 76 74 73 71 70 68 68 67 67 67 66 65 64 64 62 61 59 58 58 58 58
135 136 137 138 140 141 143 144 145 146 147 147 148 147 147 146 146 145 144 143 143 143 142 141 140 137 135 133 132 131 131 130 130 130 130 130 129 127 126 125 124 123 121 119 116 114 112 109 106 103 101 99 97 95 94 92 90 88 85 83 81 79 78 76 74 72 71 70 68 67 67 66 66 66 65 64 64 63 62 61 60 58 58 58 58
139 141 142 143 144 145 146 147 147 147 147 147 147 146 145 144 144 143 142 141 141 140 138 136 134 132 131 130 129 129 129 129 130 129 129 128 126 124 123 121 120 119 117 115 112 110 108 105 102 100 98 96 94 93 91 90 88 86 84 82 79 78 77 75 73 71 69 68 67 67 66 66 65 66 65 64 63 63 62 62 60 59 58 59 59
144 145 145 146 147 147 147 147 147 146 146 145 145 144 143 142 142 141 140 139 137 134 132 131 129 129 129 129 129 129 129 128 128 127 126 125 123 122 120 118 116 115 113 110 108 105 103 101 99 97 95 94 92 91 90 88 86 84 82 81 79 77 76 75 73 71 69 67 67 66 66 66 65 65 65 64 63 63 62 61 60 59 59 59 59
146 147 147 147 147 147 146 146 146 145 145 144 143 142 141 140 139 137 136 134 132 131 130 129 129 128 128 128 128 128 127 126 125 124 122 121 120 118 116 114 112 110 108 106 104 101 98 97 95 93 92 91 90 90 88 87 85 83 81 79 78 77 76 75 73 71 69 68 67 66 65 65 65 65 65 64 63 63 62 61 60 59 59 59 59
146 146 146 146 146 145 145 144 144 143 142 141 140 139 137 136 134 132 131 130 129 130 130 130 130 129 129 128 127 126 124 123 122 121 119 118 116 114 112 110 107 105 103 101 99 97 95 94 92 91 90 88 87 87 86 84 82 81 79 78 77 76 75 74 72 71 70 68 67 66 65 65 65 65 64 63 63 62 62 61 60 59 59 59 58
145 144 144 143 143 142 141 140 140 139 137 136 135 133 132 130 130 129 129 129 129 130 130 130 130 129 127 125 124 122 121 120 119 117 116 114 112 110 107 105 103 101 98 97 95 94 93 92 91 90 88 87 86 85 83 82 80 78 77 76 75 74 74 73 71 70 69 68 67 66 65 65 65 65 64 63 62 62 61 60 60 60 59 58 58
141 140 140 139 138 137 136 135 134 133 132 131 130 129 129 129 129 129 129 129 129 129 128 128 126 125 124 122 120 119 118 117 115 114 112 110 108 106 104 101 99 98 96 94 93 92 90 90 89 88 87 86 84 83 82 80 79 77 75 74 73 73 73 72 71 70 69 68 67 66 65 65 65 65 63 62 62 62 61 60 59 60 59 58 57
136 135 134 134 133 132 131 130 130 129 129 129 129 129 130 130 130 129 129 128 127 126 125 124 122 121 120 118 116 115 113 112 111 109 107 105 103 102 100 99 97 96 94 93 92 90 89 88 87 86 85 84 83 81 80 78 77 75 74 73 72 72 72 71 70 69 68 67 66 65 65 65 65 64 63 62 62 61 61 60 59 59 59 58 56
131 131 130 130 129 129 129 129 129 129 129 129 129 129 129 129 129 128 127 125 124 122 121 120 118 117 115 113 111 109 107 106 105 103 102 100 99 98 98 97 96 95 93 92 91 90 88 87 86 84 83 82 81 80 78 76 75 73 72 71 70 70 70 70 69 68 67 66 65 65 64 65 64 62 62 62 61 60 60 60 59 59 58 57 56
129 129 129 129 130 130 130 130 129 129 129 128 128 128 128 127 125 124 122 121 120 118 117 115 113 112 110 107 105 103 101 100 99 98 98 97 96 96 95 95 94 93 92 90 89 88 87 85 84 82 81 79 79 78 76 75 73 72 71 70 70 69 69 69 68 67 66 65 64 64 64 63 62 61 61 60 59 59 59 59 59 58 57 56 56
129 130 130 130 131 130 130 129 129 128 127 126 126 125 124 122 121 120 118 117 115 114 112 111 109 107 105 103 101 99 97 96 95 95 95 94 94 93 93 92 91 91 90 88 87 85 84 82 81 80 78 77 76 75 74 73 72 71 70 70 69 68 68 67 67 66 65 64 63 63 62 61 60 60 60 58 58 58 59 58 58 57 55 55 55
131 131 131 130 130 129 129 128 127 126 124 123 122 120 119 118 117 116 115 113 112 110 109 107 105 103 101 100 98 97 95 94 93 92 92 91 91 90 89 89 89 88 87 86 84 82 81 79 78 77 76 75 74 73 72 71 71 70 69 69 68 68 67 66 65 64 63 63 63 62 61 60 60 59 58 57 57 58 58 57 56 55 54 54 54
130 130 129 129 128 127 126 124 123 122 121 120 119 118 117 116 115 113 112 110 109 107 105 103 101 100 98 97 96 95 93 92 91 90 89 88 87 87 86 86 85 84 83 82 81 79 78 78 77 76 75 74 73 71 71 70 69 68 68 67 67 67 66 65 64 63 62 63 63 61 60 59 59 58 56 56 57 57 55 55 54 54 53 53 53
129 128 127 126 124 123 122 121 120 119 119 118 117 116 115 113 112 110 109 107 104 102 101 99 98 97 95 94 93 92 91 90 89 87 86 85 85 84 83 82 81 80 80 79 78 77 76 76 75 75 74 73 73 71 70 69 68 67 67 66 66 66 66 64 63 63 62 62 61 60 60 59 57 56 56 56 56 55 53 53 52 52 52 52 52
126 124 123 121 120 120 119 119 118 117 117 116 115 114 112 111 109 107 104 102 100 99 97 96 95 94 92 91 90 89 88 87 86 85 84 83 82 81 80 79 78 77 77 76 75 75 74 74 73 73 73 72 72 71 69 68 67 66 66 65 65 65 65 64 63 62 61 60 59 59 59 56 54 54 55 56 55 53 51 51 51 51 51 51 50
121 120 119 119 119 118 117 117 116 115 114 113 112 111 109 106 104 102 100 99 97 96 95 93 92 91 90 88 87 86 85 84 83 82 81 80 79 79 78 77 76 76 75 75 74 73 73 72 72 71 71 71 70 69 68 67 67 66 65 64 64 63 63 63 62 61 59 58 58 57 56 54 53 54 55 54 53 51 50 50 50 50 50 50 50
119 119 119 118 117 116 116 114 114 113 112 110 108 106 104 102 100 98 97 95 94 93 92 91 90 89 88 86 85 84 83 82 82 81 80 79 78 77 76 75 74 74 74 73 73 72 71 70 70 70 69 69 68 68 67 66 66 65 64 63 62 61 61 61 60 59 57 56 55 54 53 53 53 53 53 52 51 50 49 49 49 48 48 48 49
119 119 118 117 116 115 113 112 111 109 107 105 103 101 99 98 96 94 93 92 91 90 89 88 87 87 86 85 84 83 82 81 80 80 79 78 77 76 75 74 73 72 72 72 71 71 70 69 69 68 68 67 67 66 65 65 64 63 62 60 59 59 59 58 57 56 54 53 52 51 51 51 52 52 51 50 49 48 48 48 47 47 47 47 48
118 117 116 115 114 112 110 108 106 104 102 101 99 97 96 95 93 92 90 89 88 87 87 86 86 85 84 83 83 82 81 80 79 78 77 77 76 75 74 73 72 72 71 71 71 70 69 68 68 67 66 65 65 64 63 62 62 60 59 58 57 56 56 55 54 53 52 51 50 49 49 50 50 51 50 48 47 47 47 47 46 45 45 46 47
116 115 113 112 110 107 105 103 101 99 98 97 96 95 93 92 91 90 89 88 87 86 85 84 83 82 82 81 80 80 79 78 77 77 76 75 75 74 74 73 72 71 70 70 69 68 68 67 66 65 64 63 62 61 60 60 59 58 57 56 55 54 53 53 52 51 50 49 48 48 48 48 48 48 48 47 46 45 45 45 45 44 44 45 45
Wind_Direction
281 282 282 282 283 283 284 285 286 286 287 287 288 289 289 290 290 289 289 289 290 290 291 291 292 292 291 292 292 292 292 292 292 292 293 293 294 294 294 295 295 295 295 295 295 295 295 294 294 294 293 293 293 293 293 293 293 293 294 294 294 295 295 296 297 297 298 298 298 298 297 297 296 296 296 295 295 294 294 293 292 291 290 290 289
282 282 283 284 285 286 286 287 288 288 289 289 290 290 290 289 289 289 289 289 290 291 292 292 292 292 292 292 292 292 292 292 292 293 293 294 294 294 294 294 295 295 294 295 295 294 294 294 293 293 293 293 294 294 294 294 294 295 295 295 296 296 297 297 298 299 299 299 299 298 298 297 297 296 296 295 294 294 293 292 291 290 289 289 288
283 284 285 286 287 288 289 289 290 290 290 290 290 290 289 289 289 289 289 290 291 292 292 293 293 293 293 293 293 293 293 293 293 293 294 294 294 294 294 294 294 294 294 294 294 294 294 293 294 294 294 294 295 295 295 295 296 296 296 297 297 298 298 299 299 300 300 300 299 299 298 298 298 297 296 296 295 294 293 291 290 289 288 288 288
285 286 287 288 289 289 290 291 291 291 291 291 290 290 289 289 289 290 290 291 292 293 293 293 294 294 294 294 294 294 293 293 294 294 294 294 294 294 294 294 294 294 294 294 293 293 294 294 294 295 295 296 296 296 297 297 297 298 298 299 299 299 300 300 300 300 300 300 300 299 299 298 298 297 296 296 295 294 292 291 289 288 288 287 287
286 287 288 288 289 290 291 291 291 291 291 290 290 289 289 289 290 290 291 291 292 293 293 294 294 294 294 294 294 294 294 294 294 294 294 294 294 294 294 294 294 294 294 294 294 294 294 295 296 296 297 297 298 298 298 299 299 299 300 300 301 301 301 301 301 301 301 301 301 300 300 299 299 298 297 296 295 293 292 290 289 288 287 286 286
288 288 288 289 290 291 291 291 291 291 291 290 290 289 289 290 290 291 291 292 292 293 293 293 294 294 294 295 294 294 294 294 294 294 294 294 294 294 294 294 294 294 294 294 295 295 296 297 297 298 299 299 300 300 300 300 301 301 301 302 302 302 302 302 302 302 302 302 302 301 301 300 300 299 298 297 295 293 291 290 289 288 287 286 285
288 289 289 290 290 290 290 291 291 291 291 290 290 289 289 290 291 291 292 292 293 293 293 293 293 294 294 295 295 294 294 294 295 295 294 294 294 294 294 294 294 295 295 296 297 298 298 299 300 300 301 301 301 301 301 302 302 302 302 302 302 302 302 303 303 303 303 303 303 302 302 302 301 300 299 297 296 294 292 290 288 288 288 287 286
288 289 289 289 290 290 290 290 290 290 290 290 290 290 290 291 291 292 293 293 294 293 293 292 293 294 294 295 295 295 295 295 295 295 295 295 295 295 295 295 296 297 298 298 299 300 301 301 302 302 303 303 302 303 303 303 303 303 303 303 303 303 303 303 304 304 304 304 304 303 303 302 301 300 299 298 297 295 293 291 289 287 286 285 285
288 288 288 289 289 289 290 290 290 290 290 290 290 290 291 292 293 293 294 294 294 293 293 293 293 294 294 295 295 295 295 295 296 296 296 296 296 296 296 297 298 299 300 301 302 303 303 304 304 304 304 304 304 304 304 304 304 304 304 304 304 304 304 304 305 305 305 305 304 304 304 303 302 301 300 299 297 296 294 292 290 288 286 284 284
287 287 287 288 288 289 289 289 290 290 290 291 291 291 292 293 293 294 294 293 294 294 294 294 294 294 294 295 295 295 295 296 296 296 296 296 297 298 299 300 301 302 303 304 305 305 306 306 306 306 305 305 305 305 305 305 305 305 305 305 305 305 305 306 306 306 306 306 305 304 304 303 302 301 300 299 297 296 294 292 290 288 287 285 284
286 286 287 288 288 289 289 290 290 290 291 291 291 292 293 293 293 293 293 294 294 295 295 295 294 294 294 295 295 295 296 297 297 297 297 298 299 301 302 303 304 305 306 307 307 307 308 307 307 306 306 306 306 306 306 306 306 306 306 306 306 306 306 306 306 307 306 306 305 305 304 303 302 301 300 298 297 295 293 291 289 288 287 285 285
286 287 288 288 289 289 290 290 290 290 291 291 292 292 293 293 293 293 294 294 295 295 295 295 295 295 295 295 296 297 297 297 297 298 299 301 302 304 305 306 307 308 308 309 309 309 309 308 308 307 307 307 307 307 307 307 307 307 306 306 306 307 307 307 307 307 307 306 305 305 304 303 302 301 299 297 296 294 292 291 289 288 286 285 284
286 287 287 288 288 288 289 290 290 290 291 291 292 292 293 293 294 294 295 295 295 296 295 295 295 295 296 297 297 298 298 298 299 301 303 304 306 307 308 309 309 310 310 310 310 310 309 309 309 308 308 308 308 308 307 307 307 307 307 307 307 308 308 307 308 308 307 306 306 305 304 303 302 300 298 297 295 293 292 290 289 288 286 284 282
285 286 286 286 287 287 288 289 290 291 292 292 292 293 293 294 295 295 296 296 296 296 296 296 296 297 298 298 299 300 300 302 303 305 306 307 308 309 310 310 311 311 311 311 310 310 310 310 309 309 309 308 308 308 308 308 308 308 307 308 308 308 308 308 308 308 307 307 306 305 304 303 302 300 298 297 295 294 292 290 289 289 287 285 283
285 285 285 286 287 288 288 289 291 292 292 292 293 293 294 295 295 295 296 296 296 297 297 298 298 299 300 300 302 303 304 305 306 307 308 309 310 311 311 311 311 311 311 311 311 311 311 310 310 309 309 309 308 308 309 308 308 308 308 308 308 309 309 309 309 308 308 307 306 305 304 303 302 300 298 297 295 294 292 290 288 288 287 286 284
286 287 287 288 289 289 290 291 292 293 293 293 294 294 295 295 295 296 296 297 297 298 299 299 300 301 302 303 304 305 306 307 308 309 310 310 311 311 311 311 311 311 311 311 311 311 311 310 310 309 309 309 309 309 309 308 308 308 308 308 309 309 309 310 309 309 308 307 306 305 304 303 301 299 297 296 295 293 292 290 288 286 285 284 283
289 289 289 290 291 292 292 293 293 293 294 294 295 295 295 295 296 296 297 298 299 299 300 301 302 303 304 305 306 307 308 308 309 310 310 310 311 310 310 311 311 311 311 311 312 311 311 310 309 309 309 309 309 309 309 308 308 308 308 309 309 310 310 310 310 309 308 307 306 305 304 303 301 299 297 295 294 292 291 290 288 286 284 282 282
291 291 291 292 292 293 292 292 293 293 294 294 295 295 296 296 297 297 298 299 300 300 302 303 304 305 306 307 307 308 309 310 310 310 310 310 310 310 310 311 311 311 311 311 312 311 310 309 309 309 309 309 309 309 309 308 308 308 308 309 309 310 311 310 310 309 308 307 306 305 304 303 302 300 298 296 294 293 291 289 287 285 283 281 280
292 293 293 293 292 292 292 292 293 293 294 294 295 296 296 297 297 298 299 300 301 302 304 305 305 306 307 307 308 309 310 310 310 309 309 309 309 310 310 311 311 311 311 311 311 310 309 309 308 309 309 309 309 309 308 308 308 308 308 309 310 310 311 310 309 308 308 307 306 305 304 304 302 301 299 297 295 293 291 289 287 285 283 281 279
293 293 292 292 291 291 292 292 293 293 294 295 296 296 297 298 298 299 300 301 303 304 304 305 306 306 307 308 309 309 309 309 308 308 308 309 309 310 310 310 310 310 310 311 310 310 309 308 308 309 309 309 309 308 308 308 308 308 308 309 310 310 310 310 308 308 307 307 306 305 304 304 303 301 299 297 296 294 292 290 288 286 284 283 281
292 292 292 291 291 292 292 293 293 294 295 296 296 297 298 298 299 300 301 302 303 304 305 305 306 307 308 308 308 308 308 307 307 308 308 309 309 309 309 309 310 310 310 310 309 309 308 308 308 308 309 309 308 308 307 307 307 307 308 308 309 310 310 309 307 307 306 306 305 304 304 303 302 301 299 298 296 295 293 291 289 286 284 283 282
292 292 292 292 292 292 293 293 294 295 296 296 297 298 298 299 300 301 302 303 303 304 305 306 306 306 307 307 307 306 306 306 307 307 308 308 308 308 309 309 309 309 309 309 309 308 308 308 308 308 308 308 308 307 307 307 307 307 307 308 309 309 309 307 306 306 306 305 305 304 303 303 302 301 299 298 296 295 294 292 290 287 285 283 281
292 292 292 292 292 293 293 294 295 295 296 297 297 298 299 300 301 302 302 303 304 305 305 305 305 305 305 305 305 305 306 306 307 307 308 308 308 308 308 308 309 309 309 308 308 308 308 308 308 308 308 308 307 307 307 307 307 307 307 308 308 309 308 307 306 306 305 304 304 303 302 302 301 300 299 298 296 295 294 292 291 289 286 283 280
291 292 292 292 293 293 294 294 295 295 296 297 298 299 299 300 301 302 302 303 303 303 303 303 303 303 304 304 304 305 305 306 307 307 307 307 307 307 308 308 308 308 308 308 308 308 307 307 307 307 307 307 306 306 306 306 306 306 306 307 308 308 307 306 305 305 304 304 303 303 302 301 301 300 299 298 296 295 294 293 291 290 288 285 283
291 292 292 293 293 294 294 294 295 296 296 297 298 299 299 300 301 301 301 302 302 301 301 302 302 302 303 303 304 304 305 306 307 307 307 307 307 307 307 307 307 307 307 307 307 307 307 307 307 307 306 306 305 305 305 306 306 306 306 307 308 308 306 305 305 304 304 304 303 303 302 301 301 300 299 298 297 296 295 294 292 291 289 287 285
292 292 293 293 293 294 294 294 295 296 297 297 298 298 299 299 300 300 300 300 300 300 301 301 301 302 302 303 304 304 305 306 306 306 306 306 306 306 306 306 306 306 306 307 306 306 306 306 306 306 305 305 304 304 305 305 305 305 305 306 307 307 306 305 305 304 304 304 303 302 302 301 300 299 299 298 297 296 295 294 293 292 290 289 287
292 293 293 293 294 294 294 295 295 296 296 297 297 297 298 298 298 298 299 299 299 300 300 300 301 302 302 303 304 304 305 306 306 306 306 306 306 306 306 306 306 306 306 306 305 305 305 305 305 304 304 303 303 304 304 304 303 304 304 306 306 306 305 305 304 304 303 303 302 301 301 300 299 299 298 298 297 296 294 293 293 292 291 289 288
292 293 293 293 294 294 294 294 294 295 295 295 296 296 296 297 297 298 298 298 299 299 300 300 301 302 302 303 304 304 305 305 305 305 305 305 305 305 305 305 305 305 305 304 304 304 304 304 303 302 302 302 302 302 302 302 302 302 303 304 305 304 303 303 302 302 301 301 300 300 300 299 298 298 298 297 296 295 294 292 291 291 290 289 288
292 292 292 292 292 292 293 293 293 293 294 294 295 295 296 296 297 297 297 298 298 299 300 301 301 302 303 304 304 304 305 305 304 304 304 304 304 304 304 304 304 304 304 303 303 303 303 302 302 301 301 301 301 301 300 300 300 301 302 302 302 302 301 300 300 300 299 299 299 299 298 298 297 297 297 296 295 294 293 292 291 290 290 289 288
290 291 291 291 291 292 292 292 293 293 293 294 294 295 295 296 296 297 297 298 299 299 300 301 302 302 303 303 304 304 304 304 304 304 304 304 304 304 304 303 303 303 302 302 302 302 302 301 301 301 300 300 300 299 299 299 299 300 300 300 300 300 299 298 298 298 298 297 297 297 297 296 296 295 295 294 294 293 292 291 291 291 290 290 288
290 290 290 291 291 292 292 292 292 293 293 294 294 295 295 296 296 297 298 299 299 300 301 301 302 302 303 303 303 303 303 303 303 303 303 303 303 303 302 302 301 301 301 301 301 301 301 300 300 300 299 299 299 298 298 298 298 299 299 299 299 298 297 297 297 297 296 296 296 296 295 295 294 294 293 293 293 293 292 292 291 291 291 290 289
290 290 291 291 291 291 292 292 293 293 294 294 295 295 296 297 297 298 299 299 300 300 301 301 301 302 302 302 302 302 302 302 302 302 302 302 301 301 300 300 300 300 299 300 300 300 299 299 299 299 298 298 298 298 298 298 298 298 298 298 298 297 297 296 296 296 296 296 296 295 294 294 294 293 293 293 293 293 293 292 292 292 291 290 289
290 290 291 291 291 291 292 292 293 293 294 295 295 296 297 297 298 299 299 299 300 300 300 301 301 301 302 302 302 301 301 301 301 301 301 300 300 299 299 298 298 298 298 298 298 298 298 298 298 298 298 297 297 297 297 297 298 298 298 298 298 297 297 296 296 296 296 296 296 295 295 294 294 293 293 293 293 293 292 292 292 292 291 290 289
290 290 291 291 291 292 292 293 294 294 295 296 297 297 298 298 299 299 299 299 300 300 300 301 301 301 301 301 301 301 301 300 300 299 299 299 298 298 298 298 298 297 297 297 297 297 297 297 297 297 297 297 297 297 297 297 298 298 298 298 298 297 297 297 297 297 296 296 295 295 294 294 293 293 293 292 292 292 292 291 292 292 291 290 290
290 291 291 292 292 293 294 294 295 296 296 297 297 298 298 298 298 299 299 299 300 300 301 301 301 301 300 300 300 300 299 299 298 298 298 297 297 297 297 297 297 296 296 296 296 296 296 296 296 296 296 296 296 297 297 297 298 298 298 298 297 297 297 297 297 297 296 295 295 294 293 293 293 292 292 292 292 291 291 291 291 291 290 289 289
291 292 292 293 294 294 295 295 296 296 296 297 297 297 297 298 298 299 299 300 300 300 300 300 300 300 300 299 299 299 298 298 297 297 297 296 296 296 296 296 295 295 295 295 295 295 295 295 295 295 295 295 296 296 296 296 297 297 296 296 296 296 296 296 296 296 295 295 294 294 293 293 292 291 291 291 291 291 291 291 291 290 289 289 289
292 292 293 294 294 294 295 295 295 296 296 296 297 297 298 298 299 299 300 300 300 300 299 299 299 299 299 298 298 298 297 297 296 296 296 296 296 295 295 295 295 294 294 294 294 294 295 295 295 295 295 296 296 295 295 296 296 295 295 295 295 295 295 295 295 294 294 294 294 293 293 292 292 291 291 291 291 290 290 291 290 290 289 288 288
292 293 293 293 294 294 294 295 295 295 296 296 297 298 298 299 299 299 299 299 299 298 298 298 298 297 297 297 297 297 296 296 296 296 295 295 295 295 295 295 294 294 294 294 294 294 294 295 295 295 295 295 295 295 295 295 295 295 295 295 295 295 294 294 294 293 293 293 293 293 293 292 291 291 291 291 291 290 290 290 289 288 288 288 287
292 292 293 293 294 294 294 295 296 296 297 297 298 298 298 298 298 298 298 297 297 297 297 297 297 296 296 296 296 296 295 295 295 295 295 295 294 294 294 294 294 294 294 294 294 295 295 295 295 295 295 295 295 295 294 294 294 294 294 294 294 294 293 293 293 293 293 293 293 293 292 291 290 290 291 290 290 290 290 289 288 287 287 287 286
292 292 293 294 294 295 295 296 296 297 297 297 297 297 297 297 297 297 297 296 296 296 296 296 296 295 295 295 295 295 294 294 294 294 294 294 294 294 294 294 294 294 294 295 295 295 295 295 295 295 294 294 294 294 294 294 294 294 294 293 293 293 292 292 292 292 292 292 291 291 290 289 289 290 289 289 289 289 288 287 286 285 285 285 285
293 293 294 294 295 295 295 295 296 296 296 297 297 296 296 296 296 296 296 296 295 295 295 295 295 295 295 295 295 294 294 294 294 294 293 293 293 293 293 293 293 294 294 294 294 295 295 295 294 294 294 294 294 293 293 294 294 294 293 293 292 292 291 291 291 290 290 290 290 289 288 288 288 288 288 288 288 287 286 285 285 284 284 284 283
293 294 294 294 294 295 295 295 296 296 296 296 295 295 295 295 295 295 295 295 295 295 296 296 296 296 296 295 295 295 294 294 293 293 293 293 293 293 293 293 293 293 293 293 294 294 294 294 294 294 294 293 293 293 294 293 293 293 293 293 292 291 290 290 290 290 290 289 288 288 288 288 288 287 287 288 287 285 284 284 284 284 283 283 282
293 293 293 294 294 294 295 295 295 295 295 295 295 295 295 295 295 296 296 296 296 297 297 297 296 296 296 296 295 295 294 293 293 293 292 292 292 292 292 292 293 293 293 293 294 294 294 294 294 293 293 293 293 293 293 293 293 293 292 292 291 290 290 289 289 290 289 289 288 288 289 289 288 287 287 287 285 283 283 283 283 283 282 281 281
292 293 293 293 294 294 295 295 295 295 295 296 296 296 296 296 296 296 297 297 297 297 297 296 296 296 295 295 295 294 294 294 293 293 293 292 292 292 292 292 292 293 293 294 294 294 294 294 293 293 293 293 293 292 292 292 292 292 291 291 290 290 289 289 289 289 289 288 288 289 289 288 287 287 287 285 282 282 282 282 282 282 281 281 281
292 292 293 294 294 295 295 295 295 296 296 296 296 296 296 296 297 297 297 296 296 296 296 295 295 295 295 295 294 294 294 294 294 294 293 293 293 293 293 293 293 293 293 293 293 293 293 293 293 293 293 293 293 293 292 292 291 291 290 290 290 289 289 289 289 289 288 288 288 288 287 286 287 286 284 282 281 281 281 281 281 281 280 280 280
292 293 294 294 295 295 295 295 296 296 296 296 296 296 296 296 296 296 296 296 296 295 295 295 295 295 295 295 294 294 294 294 294 294 293 293 293 293 293 293 293 293 293 292 292 292 292 292 292 292 292 292 292 292 292 291 291 290 290 290 289 289 289 288 288 287 287 287 287 286 285 285 285 283 281 281 281 281 281 280 280 280 280 279 279
293 294 294 295 295 295 295 295 296 296 296 296 296 296 296 296 296 296 296 295 295 295 295 295 295 295 295 295 295 295 294 294 294 294 294 294 294 293 293 293 293 293 292 292 292 292 292 292 291 291 291 291 291 291 291 291 291 290 290 289 288 288 287 287 287 287 287 286 285 285 285 285 283 281 280 280 281 281 280 280 279 279 279 279 278
294 294 295 295 295 295 295 295 295 295 295 295 295 295 295 295 295 295 295 295 295 295 295 295 295 295 295 295 295 295 295 295 295 295 294 294 294 294 293 293 292 292 292 292 292 292 291 291 291 291 291 291 291 291 291 290 290 289 289 288 287 287 286 286 286 286 285 285 284 284 284 282 281 279 279 279 280 280 279 279 278 278 278 278 278
294 295 295 295 295 295 295 295 295 294 294 294 294 294 294 294 294 295 295 295 295 295 295 295 295 295 295 295 295 295 295 295 295 294 294 294 294 293 293 293 293 293 293 292 292 292 292 292 292 291 291 291 291 291 290 290 289 288 288 287 287 286 286 285 285 285 284 283 283 282 281 279 278 278 278 279 279 279 278 278 277 277 277 277 277
294 294 294 295 295 294 294 294 294 294 294 294 294 294 294 295 295 295 295 295 295 295 294 294 295 295 295 295 295 294 294 294 294 294 294 294 294 294 294 294 294 293 293 293 293 293 293 292 292 292 291 291 290 290 289 289 289 288 288 287 286 286 285 285 284 284 283 282 281 280 279 278 278 278 278 278 278 278 277 277 277 277 276 276 276
294 294 294 294 294 293 293 293 293 294 294 294 294 295 295 295 295 295 295 295 295 294 294 294 294 294 294 294 294 294 294 294 294 294 294 294 294 294 294 294 294 294 293 293 293 293 292 292 292 292 291 291 291 290 290 289 289 289 288 287 287 286 285 284 284 283 283 282 281 280 279 278 278 278 278 278 278 277 277 277 277 276 276 275 276
Height
10633 10631 10629 10627 10625 10623 10621 10619 10617 10614 10611 10608 10605 10602 10600 10597 10594 10591 10588 10585 10582 10579 10576 10573 10570 10566 10561 10557 10552 10548 10543 10538 10532 10526 10520 10515 10511 10506 10501 10496 10490 10484 10478 10472 10466 10460 10454 10448 10440 10434 10427 10419 10411 10403 10395 10386 10377 10369 10359 10350 10342 10334 10328 10322 10318 10314 10306 10294 10286 10276 10264 10261 10256 10244 10238 10233 10221 10212 10205 10197 10192 10187 10182 10178 10176
10625 10623 10621 10619 10617 10614 10612 10610 10607 10604 10601 10599 10596 10593 10590 10587 10584 10581 10577 10574 10571 10569 10566 10563 10559 10555 10550 10546 10541 10536 10531 10526 10520 10514 10508 10503 10498 10493 10487 10482 10477 10471 10464 10458 10452 10446 10439 10433 10425 10418 10411 10403 10395 10386 10378 10369 10359 10351 10342 10332 10323 10315 10308 10302 10296 10292 10287 10276 10266 10256 10245 10239 10236 10228 10221 10218 10209 10199 10192 10183 10175 10170 10165 10162 10161
10617 10615 10613 10611 10608 10605 10603 10600 10598 10595 10592 10589 10586 10583 10580 10577 10574 10571 10567 10564 10561 10559 10556 10552 10548 10543 10539 10534 10529 10524 10519 10514 10508 10502 10496 10490 10484 10479 10474 10469 10463 10457 10451 10444 10437 10430 10424 10417 10410 10402 10395 10386 10378 10370 10360 10351 10342 10332 10324 10314 10305 10297 10288 10282 10276 10270 10265 10257 10247 10238 10229 10221 10216 10210 10204 10201 10195 10186 10178 10169 10161 10154 10149 10146 10145
10609 10607 10604 10602 10599 10596 10593 10591 10588 10585 10583 10580 10577 10574 10570 10567 10564 10561 10557 10554 10551 10548 10544 10540 10536 10531 10527 10522 10517 10512 10507 10501 10496 10490 10484 10477 10471 10465 10460 10454 10449 10443 10436 10429 10422 10415 10408 10402 10394 10386 10378 10370 10362 10353 10343 10334 10325 10315 10306 10297 10288 10279 10270 10262 10256 10249 10244 10238 10229 10220 10213 10206 10199 10192 10187 10185 10181 10172 10163 10156 10148 10141 10135 10131 10131
10600 10598 10595 10593 10590 10586 10583 10581 10578 10576 10573 10571 10568 10564 10561 10557 10554 10551 10548 10544 10541 10537 10533 10528 10524 10519 10515 10510 10506 10501 10495 10489 10484 10478 10471 10464 10457 10451 10446 10440 10435 10428 10422 10414 10407 10400 10392 10385 10378 10369 10361 10353 10345 10336 10326 10317 10308 10299 10289 10280 10270 10261 10253 10244 10237 10230 10224 10218 10210 10203 10196 10189 10182 10175 10170 10167 10166 10161 10152 10142 10132 10126 10124 10119 10116
10591 10588 10585 10583 10580 10577 10574 10571 10568 10566 10564 10561 10558 10554 10550 10547 10544 10541 10538 10534 10530 10526 10521 10517 10512 10507 10503 10499 10494 10489 10483 10477 10471 10464 10457 10450 10444 10438 10432 10426 10420 10413 10406 10399 10391 10384 10376 10369 10361 10353 10344 10336 10327 10318 10309 10300 10292 10282 10272 10263 10254 10245 10236 10228 10220 10213 10206 10199 10192 10185 10179 10173 10165 10159 10153 10148 10147 10145 10141 10133 10119 10110 10110 10107 10103
10581 10578 10576 10573 10570 10567 10564 10561 10558 10556 10554 10551 10547 10544 10540 10537 10534 10531 10527 10523 10519 10515 10510 10505 10501 10496 10491 10487 10481 10476 10470 10463 10457 10450 10443 10436 10430 10424 10418 10412 10405 10398 10391 10384 10375 10367 10360 10352 10344 10336 10327 10319 10310 10301 10293 10285 10276 10266 10256 10246 10237 10229 10220 10212 10204 10197 10190 10183 10175 10168 10163 10157 10149 10144 10139 10133 10130 10127 10125 10123 10113 10102 10096 10091 10087
10571 10568 10566 10563 10560 10557 10554 10551 10549 10546 10543 10540 10537 10533 10530 10526 10524 10520 10516 10512 10507 10503 10498 10493 10489 10484 10479 10474 10469 10463 10456 10450 10443 10436 10428 10422 10416 10410 10404 10396 10389 10383 10376 10368 10359 10351 10343 10336 10328 10319 10310 10302 10293 10285 10276 10268 10259 10249 10239 10230 10221 10213 10204 10196 10189 10182 10175 10167 10159 10153 10148 10141 10134 10129 10124 10119 10116 10112 10107 10105 10102 10096 10090 10081 10074
10561 10558 10556 10553 10549 10547 10544 10542 10539 10536 10533 10530 10526 10523 10519 10516 10513 10509 10504 10500 10495 10490 10486 10482 10477 10471 10466 10461 10455 10449 10442 10436 10429 10421 10414 10407 10401 10395 10388 10380 10373 10367 10360 10351 10343 10334 10326 10319 10311 10302 10293 10284 10276 10268 10260 10252 10242 10232 10223 10214 10205 10197 10189 10181 10174 10167 10160 10153 10145 10139 10134 10127 10121 10116 10112 10106 10102 10098 10093 10089 10086 10083 10079 10074 10067
10551 10548 10546 10542 10539 10537 10535 10532 10529 10526 10522 10518 10515 10512 10508 10505 10501 10497 10492 10487 10482 10478 10474 10469 10464 10458 10453 10448 10441 10435 10429 10422 10415 10407 10400 10393 10387 10380 10372 10364 10357 10350 10343 10335 10326 10318 10310 10302 10294 10284 10276 10268 10260 10252 10243 10235 10226 10217 10208 10198 10189 10182 10174 10167 10160 10153 10147 10139 10131 10125 10121 10115 10108 10104 10100 10095 10089 10085 10081 10077 10074 10070 10067 10063 10059
10540 10538 10535 10532 10529 10526 10523 10521 10518 10515 10511 10507 10504 10501 10497 10494 10489 10483 10479 10473 10469 10466 10461 10456 10451 10445 10440 10434 10428 10422 10415 10409 10401 10393 10386 10379 10372 10364 10356 10347 10340 10333 10326 10318 10309 10301 10293 10285 10277 10267 10259 10251 10243 10235 10227 10218 10210 10201 10192 10183 10175 10167 10160 10152 10146 10140 10134 10125 10118 10112 10108 10103 10097 10092 10088 10084 10079 10074 10069 10065 10062 10059 10056 10054 10051
10529 10527 10524 10520 10518 10515 10512 10510 10507 10503 10500 10496 10493 10489 10485 10481 10475 10470 10465 10460 10456 10453 10448 10442 10437 10431 10425 10419 10414 10408 10401 10394 10386 10378 10372 10364 10357 10349 10340 10331 10324 10316 10309 10301 10293 10284 10276 10268 10260 10251 10243 10235 10227 10218 10210 10202 10194 10185 10176 10168 10160 10153 10146 10138 10132 10127 10120 10112 10106 10100 10095 10090 10086 10080 10076 10074 10069 10064 10059 10053 10050 10048 10046 10045 10043
10520 10518 10514 10510 10507 10505 10502 10500 10496 10492 10489 10485 10481 10477 10472 10466 10461 10456 10452 10448 10444 10440 10434 10428 10422 10416 10410 10405 10399 10393 10386 10378 10371 10363 10356 10348 10342 10334 10325 10316 10308 10300 10293 10285 10276 10268 10259 10251 10243 10234 10227 10219 10210 10202 10194 10186 10178 10169 10161 10153 10145 10138 10131 10124 10118 10112 10105 10099 10094 10088 10082 10078 10074 10068 10064 10062 10059 10055 10050 10044 10039 10036 10034 10033 10033
10511 10508 10504 10500 10497 10495 10492 10489 10485 10481 10478 10473 10469 10464 10458 10452 10447 10443 10439 10435 10431 10426 10420 10413 10407 10401 10396 10390 10384 10377 10369 10362 10356 10348 10340 10333 10327 10319 10310 10301 10293 10285 10277 10269 10260 10251 10243 10235 10225 10216 10209 10202 10194 10187 10179 10170 10162 10153 10145 10138 10131 10124 10117 10110 10104 10098 10090 10085 10081 10075 10070 10066 10061 10056 10052 10050 10047 10044 10041 10037 10032 10027 10022 10020 10020
10500 10497 10493 10489 10487 10484 10481 10477 10473 10470 10465 10460 10455 10450 10444 10438 10434 10429 10426 10421 10417 10412 10405 10398 10392 10386 10381 10375 10368 10360 10352 10346 10340 10332 10324 10317 10311 10305 10296 10286 10279 10271 10261 10252 10243 10235 10227 10218 10208 10199 10191 10184 10178 10171 10163 10154 10146 10138 10130 10124 10117 10110 10103 10097 10090 10083 10076 10071 10067 10062 10058 10054 10050 10045 10041 10038 10036 10033 10030 10028 10025 10021 10015 10009 10007
10489 10484 10480 10477 10475 10472 10468 10464 10460 10455 10450 10446 10441 10436 10430 10425 10420 10416 10411 10407 10402 10396 10389 10383 10377 10371 10365 10358 10351 10344 10337 10330 10324 10316 10308 10301 10295 10290 10282 10273 10265 10256 10245 10235 10228 10220 10210 10201 10192 10183 10175 10168 10162 10156 10148 10140 10132 10123 10116 10110 10104 10097 10091 10084 10077 10069 10062 10058 10053 10049 10046 10043 10039 10035 10030 10028 10026 10023 10020 10017 10015 10014 10010 10004 9999
10475 10470 10467 10464 10461 10458 10454 10449 10445 10440 10436 10432 10427 10421 10416 10411 10406 10401 10396 10392 10387 10381 10374 10368 10362 10356 10349 10342 10336 10329 10321 10314 10307 10300 10293 10285 10279 10274 10267 10259 10251 10240 10229 10220 10213 10204 10193 10184 10175 10168 10160 10153 10147 10140 10133 10125 10117 10109 10102 10096 10091 10085 10079 10072 10064 10056 10049 10045 10040 10036 10033 10031 10028 10024 10020 10017 10016 10014 10012 10008 10005 10004 10002 9999 9994
10460 10457 10454 10452 10448 10444 10439 10435 10430 10426 10423 10418 10413 10407 10403 10398 10392 10386 10381 10376 10371 10365 10358 10352 10345 10339 10333 10327 10320 10313 10305 10297 10290 10285 10278 10270 10264 10257 10250 10243 10235 10224 10214 10206 10198 10188 10177 10167 10160 10153 10147 10140 10133 10126 10118 10111 10103 10095 10088 10083 10079 10073 10067 10060 10052 10044 10038 10032 10027 10022 10020 10018 10016 10012 10009 10006 10004 10003 10003 10000 9997 9994 9993 9992 9989
10447 10444 10441 10438 10434 10430 10425 10420 10417 10413 10409 10404 10399 10394 10389 10383 10377 10371 10366 10361 10355 10349 10342 10336 10329 10324 10317 10311 10304 10297 10289 10281 10273 10268 10262 10254 10247 10240 10233 10226 10218 10208 10200 10193 10183 10172 10161 10152 10145 10139 10133 10127 10119 10111 10104 10096 10089 10082 10075 10071 10067 10062 10056 10048 10040 10033 10027 10021 10015 10010 10007 10005 10004 10001 9998 9995 9992 9992 9992 9991 9988 9985 9983 9982 9983
10435 10431 10428 10424 10420 10416 10411 10407 10403 10399 10395 10390 10385 10380 10375 10368 10362 10356 10350 10344 10339 10334 10327 10320 10314 10308 10301 10295 10289 10282 10274 10265 10257 10251 10245 10238 10230 10223 10216 10209 10201 10193 10186 10179 10168 10157 10146 10137 10131 10124 10119 10113 10105 10097 10089 10082 10075 10068 10062 10059 10056 10051 10045 10037 10029 10023 10017 10011 10005 10000 9997 9995 9992 9990 9987 9984 9981 9980 9980 9980 9978 9976 9973 9971 9972
10421 10417 10414 10410 10405 10401 10397 10393 10389 10385 10380 10376 10370 10365 10359 10353 10347 10341 10334 10328 10324 10318 10312 10305 10298 10292 10285 10279 10274 10267 10259 10250 10241 10234 10227 10220 10212 10204 10199 10193 10184 10177 10172 10164 10153 10141 10131 10124 10117 10110 10105 10099 10090 10082 10075 10068 10062 10055 10050 10047 10044 10040 10034 10026 10019 10013 10007 10001 9995 9990 9987 9985 9982 9980 9977 9974 9971 9969 9968 9968 9968 9967 9964 9962 9961
10406 10402 10399 10395 10391 10387 10383 10379 10375 10370 10365 10360 10355 10349 10343 10337 10331 10325 10319 10314 10308 10302 10296 10289 10283 10277 10271 10265 10260 10252 10243 10234 10225 10217 10209 10201 10192 10186 10181 10176 10168 10161 10156 10149 10138 10127 10117 10110 10103 10096 10090 10083 10075 10067 10060 10054 10049 10042 10037 10035 10033 10029 10023 10015 10008 10003 9997 9992 9986 9981 9977 9975 9972 9970 9968 9965 9961 9959 9957 9956 9957 9957 9954 9953 9953
10391 10388 10384 10380 10376 10373 10368 10364 10360 10355 10350 10345 10339 10334 10328 10321 10316 10310 10304 10298 10292 10287 10281 10274 10268 10264 10258 10251 10245 10237 10227 10218 10210 10201 10192 10181 10173 10167 10162 10158 10152 10146 10140 10133 10123 10113 10103 10095 10089 10083 10076 10068 10059 10051 10045 10039 10034 10029 10024 10022 10021 10018 10012 10004 9998 9992 9987 9982 9977 9972 9968 9965 9963 9960 9958 9955 9952 9950 9947 9945 9945 9946 9943 9941 9942
10378 10375 10371 10367 10363 10358 10354 10350 10345 10340 10335 10329 10324 10319 10313 10307 10301 10296 10289 10283 10278 10272 10266 10260 10255 10250 10243 10237 10229 10221 10211 10202 10194 10186 10175 10163 10155 10149 10144 10139 10134 10129 10124 10118 10108 10098 10089 10081 10075 10070 10063 10054 10045 10037 10031 10025 10020 10015 10011 10009 10009 10006 9999 9992 9987 9982 9977 9972 9968 9963 9958 9956 9953 9950 9948 9946 9943 9941 9937 9935 9934 9934 9933 9929 9928
10364 10360 10356 10352 10348 10344 10340 10335 10330 10325 10320 10315 10310 10304 10298 10293 10287 10281 10275 10270 10264 10258 10252 10246 10240 10234 10228 10221 10213 10204 10195 10187 10179 10169 10158 10147 10138 10131 10126 10121 10116 10111 10108 10103 10094 10084 10075 10068 10061 10056 10049 10041 10032 10024 10018 10013 10007 10001 9998 9996 9996 9993 9987 9980 9976 9971 9966 9962 9957 9952 9949 9946 9944 9941 9938 9936 9934 9932 9929 9925 9923 9923 9922 9919 9916
10348 10345 10341 10336 10332 10328 10324 10319 10314 10310 10305 10300 10295 10290 10284 10279 10273 10267 10262 10256 10250 10244 10238 10231 10224 10218 10211 10204 10197 10188 10180 10172 10163 10153 10141 10132 10124 10115 10108 10103 10098 10092 10089 10086 10080 10072 10064 10056 10049 10042 10035 10028 10020 10012 10006 10000 9994 9988 9985 9984 9983 9980 9973 9968 9964 9959 9955 9952 9947 9943 9939 9936 9933 9931 9929 9927 9925 9924 9921 9917 9914 9912 9911 9909 9905
10332 10328 10324 10320 10316 10311 10307 10303 10299 10294 10289 10285 10280 10275 10270 10265 10259 10254 10248 10240 10234 10228 10221 10214 10208 10201 10193 10186 10179 10171 10164 10156 10147 10136 10126 10118 10109 10100 10092 10086 10080 10074 10070 10067 10063 10059 10054 10047 10039 10030 10022 10015 10009 10001 9995 9989 9981 9976 9973 9971 9969 9966 9961 9956 9952 9949 9945 9942 9938 9933 9930 9926 9923 9921 9919 9917 9915 9914 9912 9910 9907 9904 9901 9899 9896
10315 10311 10307 10304 10300 10296 10292 10288 10284 10280 10275 10271 10266 10261 10256 10250 10245 10239 10232 10224 10217 10211 10204 10198 10191 10183 10175 10168 10161 10153 10147 10139 10129 10120 10112 10104 10096 10086 10077 10070 10063 10057 10052 10048 10044 10042 10040 10034 10027 10019 10011 10004 9998 9991 9984 9978 9972 9966 9963 9961 9959 9955 9951 9946 9943 9940 9937 9933 9929 9925 9921 9917 9914 9911 9909 9907 9905 9904 9903 9901 9899 9896 9893 9890 9887
10300 10296 10292 10289 10284 10281 10277 10273 10269 10265 10260 10256 10251 10245 10240 10235 10229 10222 10215 10207 10201 10194 10187 10180 10173 10164 10157 10150 10142 10135 10129 10121 10112 10103 10097 10089 10081 10073 10064 10056 10048 10041 10035 10030 10027 10026 10024 10018 10011 10005 9998 9992 9987 9981 9974 9968 9963 9958 9954 9952 9949 9946 9941 9937 9934 9931 9928 9924 9920 9917 9913 9908 9905 9902 9900 9897 9894 9893 9893 9892 9890 9887 9885 9882 9879
10284 10281 10277 10273 10269 10265 10261 10257 10253 10248 10243 10239 10234 10228 10223 10217 10211 10205 10197 10190 10183 10176 10169 10161 10154 10146 10139 10133 10125 10117 10111 10104 10095 10088 10081 10074 10066 10058 10050 10042 10034 10027 10020 10014 10011 10010 10007 10000 9995 9990 9983 9978 9973 9967 9961 9956 9952 9948 9945 9942 9939 9935 9931 9927 9924 9922 9919 9915 9911 9908 9904 9900 9897 9893 9890 9887 9884 9882 9882 9882 9880 9878 9875 9872 9869
10268 10264 10260 10256 10252 10248 10243 10239 10235 10230 10225 10220 10215 10210 10204 10198 10192 10186 10179 10172 10165 10157 10150 10143 10136 10129 10123 10116 10108 10101 10093 10086 10079 10072 10065 10058 10051 10044 10036 10029 10021 10014 10007 10001 9998 9995 9990 9984 9980 9975 9969 9964 9960 9954 9948 9944 9940 9936 9934 9931 9928 9924 9920 9916 9914 9911 9908 9905 9902 9899 9895 9892 9888 9884 9881 9879 9875 9873 9871 9871 9870 9868 9865 9863 9860
10251 10247 10242 10238 10234 10230 10225 10220 10216 10211 10206 10201 10196 10190 10185 10178 10172 10165 10158 10152 10146 10139 10132 10125 10118 10112 10105 10099 10092 10084 10077 10069 10062 10055 10049 10042 10036 10030 10023 10016 10008 10001 9994 9989 9985 9981 9975 9969 9966 9961 9955 9950 9946 9940 9935 9931 9927 9924 9921 9919 9916 9912 9908 9905 9903 9900 9897 9895 9892 9889 9885 9882 9879 9875 9872 9869 9867 9864 9862 9860 9859 9858 9855 9852 9850
10233 10229 10225 10220 10216 10211 10206 10202 10197 10192 10187 10181 10176 10170 10164 10158 10152 10145 10137 10132 10127 10121 10114 10107 10100 10093 10087 10081 10074 10068 10060 10053 10046 10039 10032 10025 10019 10015 10009 10002 9995 9988 9981 9976 9972 9967 9960 9955 9951 9947 9942 9937 9933 9928 9923 9919 9915 9912 9909 9906 9902 9898 9895 9892 9891 9889 9886 9884 9881 9877 9874 9871 9869 9865 9862 9860 9858 9855 9853 9851 9849 9848 9845 9842 9840
10214 10210 10206 10202 10197 10192 10187 10183 10177 10172 10166 10160 10155 10148 10142 10137 10131 10125 10118 10112 10106 10100 10095 10088 10082 10076 10069 10063 10056 10049 10043 10037 10030 10023 10017 10009 10002 9997 9992 9987 9981 9974 9966 9962 9958 9954 9947 9942 9938 9933 9928 9924 9919 9914 9910 9907 9903 9900 9896 9893 9889 9886 9882 9879 9878 9876 9874 9872 9870 9867 9863 9861 9858 9856 9853 9850 9849 9847 9845 9842 9840 9839 9836 9833 9831
10195 10191 10187 10182 10177 10172 10167 10162 10156 10151 10145 10139 10134 10128 10122 10116 10110 10105 10099 10093 10087 10080 10074 10068 10063 10057 10051 10045 10038 10031 10025 10019 10012 10005 10000 9994 9987 9981 9976 9971 9966 9959 9952 9947 9943 9939 9935 9930 9926 9922 9917 9912 9907 9902 9898 9894 9892 9888 9885 9881 9878 9874 9870 9867 9865 9864 9862 9861 9859 9856 9853 9851 9848 9846 9843 9841 9839 9837 9835 9834 9832 9830 9827 9825 9823
10176 10171 10166 10161 10156 10151 10146 10141 10136 10131 10125 10120 10114 10109 10103 10097 10092 10086 10081 10075 10069 10062 10055 10048 10042 10037 10032 10027 10021 10014 10008 10001 9994 9988 9982 9976 9971 9966 9961 9956 9951 9946 9940 9934 9929 9925 9921 9916 9912 9909 9906 9902 9897 9892 9887 9884 9881 9878 9874 9871 9867 9864 9860 9857 9855 9852 9851 9849 9847 9845 9843 9841 9838 9835 9833 9831 9830 9828 9826 9824 9822 9820 9818 9817 9814
10156 10151 10147 10142 10137 10132 10127 10122 10117 10112 10107 10102 10096 10091 10085 10079 10074 10068 10063 10057 10051 10045 10038 10031 10024 10018 10012 10008 10002 9996 9990 9984 9977 9971 9964 9958 9954 9949 9945 9940 9936 9932 9927 9922 9917 9913 9908 9903 9898 9895 9892 9888 9884 9880 9876 9873 9870 9868 9865 9861 9857 9854 9850 9846 9844 9842 9840 9838 9836 9835 9833 9830 9827 9825 9824 9822 9820 9818 9816 9815 9812 9810 9809 9808 9806
10137 10133 10128 10123 10119 10114 10109 10104 10099 10094 10089 10083 10078 10072 10067 10061 10056 10051 10046 10040 10034 10028 10021 10015 10009 10002 9995 9990 9985 9979 9973 9966 9960 9954 9948 9943 9937 9932 9928 9924 9920 9916 9912 9908 9904 9900 9896 9891 9886 9882 9879 9875 9871 9867 9864 9861 9858 9856 9853 9850 9847 9843 9839 9836 9834 9831 9830 9828 9826 9824 9822 9819 9816 9815 9814 9812 9810 9808 9806 9805 9803 9801 9799 9798 9797
10119 10115 10110 10106 10101 10096 10091 10086 10081 10075 10070 10065 10059 10054 10049 10043 10039 10033 10028 10022 10017 10010 10004 9998 9992 9986 9980 9974 9968 9963 9957 9950 9944 9938 9933 9928 9922 9917 9912 9908 9904 9900 9897 9894 9890 9886 9882 9878 9874 9870 9866 9862 9858 9855 9852 9850 9847 9844 9841 9839 9836 9832 9828 9825 9823 9821 9819 9818 9816 9814 9812 9809 9807 9806 9804 9803 9801 9799 9796 9795 9794 9792 9790 9789 9789
10101 10096 10092 10087 10083 10077 10073 10068 10063 10058 10053 10048 10043 10037 10031 10026 10020 10015 10009 10004 9998 9992 9987 9981 9975 9969 9964 9958 9953 9948 9942 9935 9929 9923 9918 9913 9908 9903 9898 9893 9889 9885 9882 9879 9875 9872 9868 9865 9861 9857 9854 9850 9846 9843 9840 9838 9836 9833 9830 9828 9826 9823 9818 9815 9812 9811 9810 9808 9807 9804 9802 9799 9798 9797 9795 9794 9792 9790 9787 9785 9784 9783 9781 9780 9779
10083 10078 10074 10069 10064 10059 10055 10051 10046 10042 10037 10032 10026 10020 10014 10008 10002 9996 9991 9986 9980 9974 9969 9963 9957 9951 9946 9941 9936 9932 9927 9921 9914 9909 9904 9899 9894 9890 9885 9880 9876 9872 9869 9865 9862 9859 9855 9851 9847 9844 9841 9838 9834 9830 9828 9825 9824 9821 9819 9816 9814 9812 9809 9805 9802 9801 9800 9799 9797 9794 9791 9790 9790 9788 9786 9785 9783 9781 9778 9776 9775 9774 9773 9771 9769
10065 10060 10056 10051 10046 10041 10037 10033 10029 10024 10019 10014 10008 10002 9995 9989 9984 9978 9973 9968 9962 9956 9951 9945 9939 9933 9928 9923 9919 9915 9911 9906 9901 9895 9890 9885 9881 9876 9872 9867 9863 9859 9855 9853 9850 9847 9843 9839 9835 9831 9828 9825 9822 9819 9817 9814 9812 9810 9807 9804 9802 9800 9797 9795 9793 9791 9790 9788 9785 9783 9782 9781 9780 9778 9776 9776 9774 9771 9769 9767 9766 9764 9764 9762 9760
10047 10043 10038 10033 10028 10024 10019 10015 10010 10005 10000 9995 9989 9983 9977 9971 9965 9960 9954 9949 9943 9938 9932 9927 9922 9917 9912 9907 9902 9898 9894 9891 9887 9882 9877 9873 9868 9864 9859 9854 9850 9845 9842 9839 9836 9833 9830 9826 9822 9818 9816 9813 9810 9808 9806 9803 9801 9799 9796 9794 9791 9788 9786 9784 9783 9782 9780 9777 9774 9773 9773 9771 9770 9768 9767 9766 9764 9761 9760 9759 9757 9755 9754 9753 9752
10030 10025 10020 10016 10012 10007 10002 9996 9991 9985 9980 9975 9969 9964 9958 9953 9947 9942 9936 9931 9926 9921 9916 9911 9906 9901 9896 9892 9887 9882 9879 9875 9872 9868 9864 9860 9855 9852 9847 9842 9838 9833 9829 9826 9823 9820 9816 9813 9809 9806 9803 9800 9799 9797 9795 9793 9791 9788 9786 9783 9780 9777 9775 9774 9773 9772 9770 9766 9764 9764 9763 9762 9760 9759 9758 9756 9753 9752 9752 9750 9748 9747 9745 9744 9743
10012 10008 10003 9999 9994 9989 9983 9978 9972 9967 9961 9956 9950 9945 9940 9935 9930 9925 9920 9915 9910 9906 9901 9896 9891 9887 9882 9878 9873 9868 9864 9860 9857 9853 9850 9846 9842 9838 9835 9831 9827 9822 9818 9815 9811 9808 9804 9801 9797 9794 9791 9788 9786 9785 9783 9782 9780 9777 9775 9772 9769 9767 9765 9764 9763 9761 9759 9757 9756 9754 9753 9752 9752 9750 9747 9745 9743 9743 9743 9742 9740 9738 9736 9735 9734
9995 9991 9986 9981 9976 9971 9965 9960 9955 9949 9943 9938 9932 9927 9922 9918 9913 9909 9904 9900 9895 9891 9886 9881 9877 9872 9868 9864 9859 9855 9851 9847 9843 9840 9836 9832 9829 9826 9822 9819 9815 9811 9807 9804 9800 9797 9794 9790 9787 9784 9780 9777 9775 9773 9772 9770 9768 9766 9764 9762 9759 9757 9755 9753 9752 9751 9749 9748 9747 9744 9743 9743 9743 9740 9737 9735 9734 9734 9734 9733 9731 9729 9728 9727 9726
9978 9973 9968 9963 9958 9953 9948 9943 9938 9932 9927 9921 9916 9911 9907 9902 9898 9893 9889 9885 9880 9876 9871 9866 9862 9858 9854 9850 9846 9842 9838 9833 9830 9826 9822 9819 9816 9813 9810 9807 9803 9799 9795 9792 9789 9786 9783 9780 9777 9774 9771 9768 9765 9763 9761 9759 9757 9755 9753 9751 9749 9747 9745 9743 9741 9740 9740 9738 9737 9735 9734 9734 9732 9729 9727 9726 9725 9725 9725 9724 9722 9721 9720 9719 9718
9959 9955 9950 9946 9941 9936 9931 9926 9921 9916 9911 9906 9901 9897 9892 9888 9884 9880 9875 9870 9866 9861 9857 9852 9848 9844 9840 9836 9832 9828 9824 9820 9816 9813 9809 9806 9803 9800 9797 9795 9791 9787 9784 9780 9777 9774 9772 9769 9766 9763 9760 9758 9755 9753 9751 9748 9746 9744 9743 9741 9739 9737 9735 9733 9731 9731 9730 9729 9727 9726 9725 9723 9721 9719 9718 9718 9717 9717 9716 9715 9714 9713 9712 9711 9709
9941 9936 9932 9927 9923 9919 9914 9909 9905 9900 9895 9890 9886 9882 9877 9873 9870 9866 9861 9857 9853 9848 9843 9839 9835 9831 9827 9823 9819 9815 9811 9808 9804 9800 9797 9794 9791 9787 9785 9782 9779 9776 9772 9769 9766 9763 9761 9758 9756 9753 9750 9748 9745 9743 9740 9738 9736 9734 9732 9731 9729 9727 9724 9722 9721 9721 9720 9719 9718 9717 9716 9713 9711 9710 9709 9710 9709 9709 9707 9706 9706 9706 9705 9703 9702
9923 9919 9914 9910 9906 9902 9897 9893 9888 9884 9879 9875 9870 9866 9862 9858 9854 9851 9846 9843 9839 9835 9831 9826 9822 9819 9815 9811 9807 9803 9799 9796 9792 9789 9785 9782 9779 9775 9772 9770 9767 9764 9761 9758 9755 9752 9749 9747 9745 9742 9740 9737 9735 9732 9730 9727 9725 9723 9721 9720 9719 9717 9715 9713 9712 9711 9710 9710 9709 9708 9706 9704 9702 9701 9701 9701 9701 9700 9699 9698 9698 9698 9697 9696 9694
9907 9902 9898 9894 9889 9885 9881 9877 9873 9868 9864 9860 9855 9851 9847 9844 9840 9836 9832 9828 9824 9821 9818 9814 9810 9807 9803 9799 9795 9791 9788 9784 9781 9777 9774 9770 9767 9764 9761 9758 9756 9753 9750 9747 9744 9741 9739 9736 9734 9732 9729 9727 9724 9722 9719 9717 9714 9712 9711 9709 9708 9707 9705 9704 9703 9702 9701 9700 9699 9698 9697 9695 9694 9693 9693 9693 9692 9692 9691 9690 9690 9690 9689 9688 9687